TimeMST,TemperatureF,Dew PointF,Humidity,Sea Level PressureIn,VisibilityMPH,Wind Direction,Wind SpeedMPH,Gust SpeedMPH,PrecipitationIn,Events,Conditions,WindDirDegrees,DateUTC
12:51 AM,3.0,-0.9,84,30.51,7.0,Calm,Calm,-,N/A,,Clear,0,2013-01-22 07:51:00
1:51 AM,1.9,-2.9,80,30.50,10.0,Calm,Calm,-,N/A,,Clear,0,2013-01-22 08:51:00
2:51 AM,1.0,-4.0,79,30.50,10.0,Calm,Calm,-,N/A,,Clear,0,2013-01-22 09:51:00
3:51 AM,-0.0,-5.1,79,30.50,10.0,Calm,Calm,-,N/A,,Clear,0,2013-01-22 10:51:00
4:51 AM,1.0,-4.0,79,30.46,5.0,Calm,Calm,-,N/A,,Haze,0,2013-01-22 11:51:00
5:22 AM,-4.0,-9.4,78,30.25,8.0,Calm,Calm,-,N/A,,Scattered Clouds,0,2013-01-22 12:22:00
5:40 AM,-0.4,-5.8,78,30.25,10.0,NNE,4.6,-,N/A,,Mostly Cloudy,30,2013-01-22 12:40:00
5:51 AM,-0.9,-7.1,75,30.48,6.0,NNW,4.6,-,N/A,,Haze,330,2013-01-22 12:51:00
6:10 AM,-2.2,-7.6,78,30.25,8.0,Calm,Calm,-,N/A,,Scattered Clouds,0,2013-01-22 13:10:00
6:33 AM,-0.4,-7.6,72,30.25,10.0,Calm,Calm,-,N/A,,Mostly Cloudy,0,2013-01-22 13:33:00
6:51 AM,-0.0,-6.0,76,30.50,10.0,Calm,Calm,-,N/A,,Scattered Clouds,0,2013-01-22 13:51:00
7:51 AM,-2.0,-9.0,72,30.52,10.0,Calm,Calm,-,N/A,,Clear,0,2013-01-22 14:51:00
8:21 AM,-2.2,-9.4,71,30.24,10.0,Calm,Calm,-,N/A,,Scattered Clouds,0,2013-01-22 15:21:00
8:30 AM,-2.2,-9.4,71,30.24,10.0,Calm,Calm,-,N/A,,Mostly Cloudy,0,2013-01-22 15:30:00
8:42 AM,-2.2,-9.4,71,30.24,1.2,Calm,Calm,-,N/A,,Haze,0,2013-01-22 15:42:00
8:48 AM,-0.4,-7.6,72,30.24,0.2,Calm,Calm,-,N/A,,Haze,0,2013-01-22 15:48:00
8:51 AM,-0.0,-6.0,76,30.53,0.2,Calm,Calm,-,N/A,,Haze,0,2013-01-22 15:51:00
9:51 AM,5.0,-0.9,76,30.52,0.2,Calm,Calm,-,N/A,,Haze,0,2013-01-22 16:51:00
10:06 AM,8.6,1.4,73,30.26,1.2,Calm,Calm,-,N/A,,Haze,0,2013-01-22 17:06:00
10:10 AM,8.6,1.4,73,30.26,3.0,Calm,Calm,-,N/A,,Haze,0,2013-01-22 17:10:00
10:51 AM,12.0,5.0,73,30.51,10.0,Calm,Calm,-,N/A,,Clear,0,2013-01-22 17:51:00
11:51 AM,16.0,9.0,74,30.48,10.0,Calm,Calm,-,N/A,,Clear,0,2013-01-22 18:51:00
12:51 PM,18.0,10.9,74,30.45,10.0,Calm,Calm,-,N/A,,Clear,0,2013-01-22 19:51:00
1:51 PM,19.0,14.0,81,30.42,10.0,Calm,Calm,-,N/A,,Clear,0,2013-01-22 20:51:00
2:51 PM,21.0,15.1,78,30.39,10.0,Calm,Calm,-,N/A,,Clear,0,2013-01-22 21:51:00
3:51 PM,21.9,14.0,72,30.38,10.0,Calm,Calm,-,N/A,,Clear,0,2013-01-22 22:51:00
4:51 PM,21.9,12.9,68,30.38,10.0,Calm,Calm,-,N/A,,Clear,0,2013-01-22 23:51:00
5:51 PM,21.9,14.0,72,30.40,10.0,Calm,Calm,-,N/A,,Clear,0,2013-01-23 00:51:00
6:51 PM,18.0,10.9,74,30.41,10.0,Calm,Calm,-,N/A,,Clear,0,2013-01-23 01:51:00
7:51 PM,16.0,12.0,84,30.43,10.0,Calm,Calm,-,N/A,,Clear,0,2013-01-23 02:51:00
8:51 PM,14.0,10.0,84,30.43,10.0,Calm,Calm,-,N/A,,Clear,0,2013-01-23 03:51:00
9:51 PM,12.9,10.0,88,30.41,10.0,Calm,Calm,-,N/A,,Clear,0,2013-01-23 04:51:00
10:51 PM,12.0,9.0,88,30.39,9.0,Calm,Calm,-,N/A,,Clear,0,2013-01-23 05:51:00
11:51 PM,10.0,6.1,84,30.37,7.0,Calm,Calm,-,N/A,,Clear,0,2013-01-23 06:51:00